Jackson, KY

5:16 PM EDT on April 20, 2018 (GMT -0400)
Carroll

Weather History for KJKL - June, 2012

Change the Weather History Date:

Friday, June 15, 2012

  Actual Average Record
Temperature  
Mean Temperature 76 °F 72 °F  
Max Temperature 86 °F 82 °F 92 °F (1988)
Min Temperature 65 °F 63 °F 54 °F (2002)
Degree Days  
Heating Degree Days 0 0  
Month to date heating degree days 12 9  
Since 1 June heating degree days 12 9  
Since 1 July heating degree days 3339 4231  
Cooling Degree Days 11 7  
Month to date cooling degree days 67 90  
Year to date cooling degree days 318 226  
Since 1 June cooling degree days 67 90  
Growing Degree Days 23 (Base 50)    
Moisture  
Dew Point 60 °F    
Average Humidity 65    
Maximum Humidity 78    
Minimum Humidity 51    
Precipitation  
Precipitation 0.00 in 0.16 in 2.28 in (2004)
Month to date precipitation 0.40 2.47  
Year to date precipitation 20.10 22.98  
Snow  
Snow 0.00 in 0.00 in - ()
Month to date snowfall 0.0 0.0  
Since 1 June snowfall 0.0 0.0  
Since 1 July snowfall 14.2 23.5  
Snow Depth 0.00 in    
Sea Level Pressure  
Sea Level Pressure 30.12 in    
Wind  
Wind Speed 2 mph (ESE)    
Max Wind Speed 8 mph    
Max Gust Speed 13 mph    
Visibility 10 miles    
Events      
T = Trace of Precipitation, MM = Missing Value Source: NWS Daily Summary

Daily Weather History Graph

Daily Weather History Graph

Search for Another Location

Airport or City:

Astronomy

Jun. 15, 2012 Rise Set
Actual Time 6:11 AM EDT 8:56 PM EDT
Civil Twilight 5:40 AM EDT 9:27 PM EDT
Nautical Twilight 5:01 AM EDT 10:06 PM EDT
Astronomical Twilight 4:17 AM EDT 10:50 PM EDT
Moon 3:22 AM EDT (6/15) 5:37 PM EDT (6/15)
Length of Visible Light 15h 47m
Length of Day
14h 45m
Waning Crescent, 14% of the Moon is Illuminated
Jun 15
Waning Crescent
Jun 19
New
Jun 26
First Quarter
Jul 3
Full
Jul 10
Last Quarter

Hourly Weather History & Observations

Time (EDT) Temp. Heat Index Dew Point Humidity Pressure Visibility Wind Dir Wind Speed Gust Speed Precip Events Conditions
12:53 AM 69.1 °F - 51.1 °F 53% 30.06 in 10.0 mi Calm Calm - N/A   Clear
1:53 AM 69.1 °F - 55.0 °F 61% 30.05 in 10.0 mi SE 6.9 mph - N/A   Clear
2:53 AM 66.9 °F - 57.0 °F 70% 30.05 in 10.0 mi ESE 3.5 mph - N/A   Clear
3:53 AM 66.0 °F - 57.0 °F 73% 30.06 in 10.0 mi ESE 4.6 mph - N/A   Clear
4:53 AM 66.0 °F - 57.0 °F 73% 30.07 in 10.0 mi East 4.6 mph - N/A   Partly Cloudy
5:53 AM 64.9 °F - 57.0 °F 75% 30.10 in 10.0 mi ESE 4.6 mph - N/A   Clear
6:53 AM 64.9 °F - 57.9 °F 78% 30.13 in 10.0 mi East 3.5 mph - N/A   Mostly Cloudy
7:53 AM 66.9 °F - 57.9 °F 73% 30.16 in 10.0 mi Calm Calm - N/A   Mostly Cloudy
8:53 AM 72.0 °F - 59.0 °F 64% 30.18 in 10.0 mi Calm Calm - N/A   Scattered Clouds
9:53 AM 73.0 °F - 60.1 °F 64% 30.17 in 10.0 mi Calm Calm - N/A   Mostly Cloudy
10:53 AM 75.0 °F - 61.0 °F 62% 30.17 in 10.0 mi SSE 3.5 mph - N/A   Scattered Clouds
11:53 AM 80.1 °F 81.1 °F 61.0 °F 52% 30.15 in 10.0 mi Variable 3.5 mph - N/A   Partly Cloudy
12:53 PM 80.1 °F 81.2 °F 62.1 °F 54% 30.15 in 10.0 mi Calm Calm - N/A   Mostly Cloudy
1:53 PM 81.0 °F 81.9 °F 62.1 °F 52% 30.14 in 10.0 mi Calm Calm - N/A   Scattered Clouds
2:53 PM 80.1 °F 81.5 °F 63.0 °F 56% 30.12 in 10.0 mi Calm Calm - N/A   Mostly Cloudy
3:53 PM 81.0 °F 82.2 °F 63.0 °F 54% 30.11 in 10.0 mi Calm Calm - N/A   Scattered Clouds
4:53 PM 82.0 °F 83.0 °F 62.1 °F 51% 30.10 in 10.0 mi Variable 4.6 mph - N/A   Mostly Cloudy
5:53 PM 82.9 °F 83.7 °F 62.1 °F 49% 30.11 in 10.0 mi Calm Calm - N/A   Partly Cloudy
6:53 PM 81.0 °F 82.2 °F 63.0 °F 54% 30.11 in 10.0 mi Variable 3.5 mph - N/A   Partly Cloudy
7:53 PM 80.1 °F 81.5 °F 63.0 °F 56% 30.11 in 10.0 mi Variable 3.5 mph - N/A   Clear
8:53 PM 78.1 °F - 62.1 °F 58% 30.12 in 10.0 mi Calm Calm - N/A   Clear
9:53 PM 75.0 °F - 63.0 °F 66% 30.13 in 10.0 mi Calm Calm - N/A   Clear
10:53 PM 75.0 °F - 63.0 °F 66% 30.13 in 10.0 mi Calm Calm - N/A   Clear
11:53 PM 73.9 °F - 63.0 °F 68% 30.12 in 10.0 mi Calm Calm - N/A   Clear